This is the latest recevied weather packets stored in our database for station/object N5GC-2. If no packets are shown the sender has not sent any weather packets the latest 10 day(s).
| Time | Temp. | Humidity | Pressure | Rain* | Wind** | Luminosity | Snow |
|---|---|---|---|---|---|---|---|
| 1777570483 | 20.56° C | 39% | - | 0 mm | - | - | - |
| 1777570179 | 21.11° C | 38% | - | 0 mm | - | - | - |
| 1777569876 | 20.56° C | 39% | - | 0 mm | - | - | - |
| 1777569572 | 20.56° C | 35% | - | 0 mm | - | - | - |
| 1777569268 | 20.56° C | 40% | - | 0 mm | - | - | - |
| 1777568965 | 21.11° C | 39% | - | 0 mm | - | - | - |
| 1777568661 | 20.56° C | 39% | - | 0 mm | - | - | - |
| 1777568359 | 20.56° C | 39% | - | 0 mm | - | - | - |
| 1777568055 | 20.56° C | 37% | - | 0 mm | - | - | - |
| 1777567752 | 20.56° C | 38% | - | 0 mm | - | - | - |
| 1777567448 | 20° C | 39% | - | 0 mm | - | - | - |
| 1777567146 | 20° C | 40% | - | 0 mm | - | - | - |
| 1777566844 | 20° C | 41% | - | 0 mm | - | - | - |
| 1777566541 | 20° C | 38% | - | 0 mm | - | - | - |
| 1777566239 | 20° C | 42% | - | 0 mm | - | - | - |
| 1777565936 | 20° C | 39% | - | 0 mm | - | - | - |
| 1777565631 | 20° C | 40% | - | 0 mm | - | - | - |
| 1777565328 | 20° C | 39% | - | 0 mm | - | - | - |
| 1777565024 | 19.44° C | 42% | - | 0 mm | - | - | - |
| 1777564720 | 19.44° C | 41% | - | 0 mm | - | - | - |
| 1777564415 | 18.89° C | 41% | - | 0 mm | - | - | - |
| 1777564111 | 18.89° C | 41% | - | 0 mm | - | - | - |
| 1777563807 | 18.33° C | 43% | - | 0 mm | - | - | - |
| 1777563504 | 18.33° C | 43% | - | 0 mm | - | - | - |
| 1777563203 | 17.78° C | 43% | - | 0 mm | - | - | - |
* Rain latest hour (hover to see other rain measurements)
** Current wind speed in m/s (hover to see current wind gust speed)